DLH6R EDDF-LPPD

Flight info

Callsign DLH6R
Flight time N/A
Altitude 33000
Route SOBRA7E SOBRA Y180 DIK UN857 TOLVU DCT RAPOR DCT GIMER DCT ESTOC UT300 PON UN872 GODIX/N0462F310 UN872 ERIGA DCT FUJTI DCT ATLEN DCT GESPU DCT LUTAK/M080F350 DCT 36N020W/M080F340 DCT ETROX
Aircraft A21N/M-SDE2E3FGHIRWXY/LB1

Departure

Time N/A
Airport Frankfurt Main Airport (EDDF)

Arrival

Time 2026-05-01 15:28
Airport João Paulo II Airport (LPPD)
Time Latitude Longitude Altitude Speed Heading
2026-05-01 13:07 41.03610 -10.15903 35097 ft 387 kts 226°
2026-05-01 13:07 41.01695 -10.18404 35102 ft 387 kts 226°
2026-05-01 13:08 40.97871 -10.23383 35100 ft 387 kts 226°
2026-05-01 13:08 40.94041 -10.28357 35100 ft 388 kts 226°
2026-05-01 13:09 40.90194 -10.33351 35096 ft 386 kts 226°
2026-05-01 13:09 40.86371 -10.38303 35102 ft 385 kts 226°
2026-05-01 13:10 40.82542 -10.43250 35097 ft 385 kts 226°
2026-05-01 13:10 40.78732 -10.48165 35098 ft 383 kts 227°
2026-05-01 13:11 40.74941 -10.53048 35094 ft 383 kts 227°
2026-05-01 13:11 40.71143 -10.57936 35093 ft 383 kts 227°
2026-05-01 13:12 40.67334 -10.62828 35103 ft 382 kts 227°
2026-05-01 13:12 40.63552 -10.67675 35096 ft 382 kts 226°
2026-05-01 13:13 40.59758 -10.72531 35097 ft 381 kts 226°
2026-05-01 13:13 40.55971 -10.77370 35101 ft 380 kts 226°
2026-05-01 13:14 40.52174 -10.82215 35098 ft 380 kts 226°
2026-05-01 13:14 40.48396 -10.87021 35093 ft 379 kts 227°
2026-05-01 13:15 40.44627 -10.91817 35103 ft 378 kts 226°
2026-05-01 13:15 40.40849 -10.96611 35098 ft 379 kts 227°
2026-05-01 13:16 40.37069 -11.01399 35095 ft 378 kts 227°
2026-05-01 13:16 40.33299 -11.06172 35102 ft 377 kts 227°
2026-05-01 13:17 40.25769 -11.15673 35104 ft 378 kts 227°
2026-05-01 13:18 40.20093 -11.22815 35093 ft 378 kts 227°
2026-05-01 13:18 40.16332 -11.27537 35097 ft 376 kts 227°
2026-05-01 13:19 40.12558 -11.32271 35094 ft 377 kts 227°
2026-05-01 13:20 40.06897 -11.39355 35093 ft 377 kts 227°
2026-05-01 13:20 40.03091 -11.44103 35099 ft 377 kts 227°
2026-05-01 13:21 39.97496 -11.51079 35102 ft 377 kts 227°
2026-05-01 13:21 39.93697 -11.55801 35102 ft 376 kts 227°
2026-05-01 13:22 39.89934 -11.60477 35099 ft 376 kts 227°
2026-05-01 13:22 39.86147 -11.65170 35101 ft 375 kts 226°
2026-05-01 13:23 39.82359 -11.69858 35099 ft 376 kts 226°
2026-05-01 13:23 39.78570 -11.74541 35097 ft 376 kts 226°
2026-05-01 13:24 39.74811 -11.79182 35095 ft 376 kts 226°
2026-05-01 13:25 39.69124 -11.86181 35102 ft 376 kts 226°
2026-05-01 13:25 39.65344 -11.90832 35099 ft 376 kts 226°
2026-05-01 13:26 39.61548 -11.95483 35096 ft 375 kts 226°
2026-05-01 13:26 39.57751 -12.00134 35104 ft 376 kts 227°
2026-05-01 13:27 39.53957 -12.04777 35097 ft 377 kts 226°
2026-05-01 13:27 39.48929 -12.10919 35098 ft 376 kts 227°
2026-05-01 13:28 39.43216 -12.17877 35086 ft 377 kts 227°
2026-05-01 13:29 39.35585 -12.27150 35087 ft 376 kts 226°
2026-05-01 13:31 39.24143 -12.40992 35089 ft 376 kts 226°
2026-05-01 13:32 39.14576 -12.52515 35077 ft 376 kts 227°
2026-05-01 13:33 39.05049 -12.63952 35083 ft 376 kts 226°
2026-05-01 13:34 38.97365 -12.73138 35073 ft 376 kts 226°
2026-05-01 13:35 38.91621 -12.79994 35090 ft 377 kts 226°
2026-05-01 13:36 38.85876 -12.86825 35071 ft 377 kts 226°
2026-05-01 13:36 38.80106 -12.93678 35060 ft 378 kts 226°
2026-05-01 13:37 38.76273 -12.98220 35059 ft 377 kts 226°
2026-05-01 13:37 38.72422 -13.02777 35062 ft 378 kts 226°
2026-05-01 13:38 38.66608 -13.09640 35063 ft 379 kts 226°
2026-05-01 13:39 38.62737 -13.14202 35064 ft 379 kts 226°
2026-05-01 13:39 38.58866 -13.18759 35063 ft 378 kts 226°
2026-05-01 13:40 38.54998 -13.23303 35062 ft 378 kts 226°
2026-05-01 13:40 38.51157 -13.27808 35065 ft 378 kts 226°
2026-05-01 13:41 38.47293 -13.32335 35066 ft 378 kts 226°
2026-05-01 13:41 38.43412 -13.36872 35041 ft 378 kts 226°
2026-05-01 13:42 38.39552 -13.41382 35058 ft 378 kts 226°
2026-05-01 13:42 38.35683 -13.45895 35063 ft 377 kts 226°
2026-05-01 13:42 38.33738 -13.48157 35189 ft 377 kts 226°
2026-05-01 13:43 38.31807 -13.50407 35111 ft 377 kts 226°
2026-05-01 13:43 38.27940 -13.54904 34970 ft 377 kts 226°
2026-05-01 13:44 38.24067 -13.59399 35008 ft 378 kts 226°
2026-05-01 13:44 38.20189 -13.63891 35142 ft 377 kts 226°
2026-05-01 13:45 38.16330 -13.68355 35081 ft 378 kts 226°
2026-05-01 13:45 38.12435 -13.72857 35098 ft 378 kts 226°
2026-05-01 13:46 38.08579 -13.77309 35059 ft 377 kts 226°
2026-05-01 13:46 38.04707 -13.81769 35068 ft 377 kts 226°
2026-05-01 13:47 38.00832 -13.86226 35062 ft 376 kts 226°
2026-05-01 13:47 37.96943 -13.90692 35061 ft 378 kts 226°
2026-05-01 13:48 37.93078 -13.95127 35057 ft 377 kts 226°
2026-05-01 13:48 37.89190 -13.99579 35058 ft 377 kts 226°
2026-05-01 13:49 37.85301 -14.04025 35062 ft 377 kts 226°
2026-05-01 13:49 37.81428 -14.08449 35064 ft 377 kts 226°
2026-05-01 13:50 37.77519 -14.12907 35067 ft 377 kts 226°
2026-05-01 13:50 37.73638 -14.17324 35035 ft 377 kts 226°
2026-05-01 13:51 37.69761 -14.21734 35055 ft 378 kts 226°
2026-05-01 13:51 37.65832 -14.26192 35058 ft 378 kts 226°
2026-05-01 13:52 37.61928 -14.30617 35049 ft 379 kts 226°
2026-05-01 13:52 37.58017 -14.35044 35052 ft 379 kts 226°
2026-05-01 13:53 37.54110 -14.39462 35052 ft 379 kts 226°
2026-05-01 13:53 37.48221 -14.46103 35056 ft 379 kts 226°
2026-05-01 13:54 37.44300 -14.50517 35066 ft 379 kts 226°
2026-05-01 13:54 37.40364 -14.54946 35054 ft 379 kts 226°
2026-05-01 13:55 37.36439 -14.59353 35062 ft 381 kts 226°
2026-05-01 13:55 37.32488 -14.63781 35063 ft 380 kts 226°
2026-05-01 13:56 37.28558 -14.68182 35055 ft 380 kts 226°
2026-05-01 13:56 37.24601 -14.72609 35046 ft 380 kts 226°
2026-05-01 13:57 37.21332 -14.76260 35064 ft 379 kts 226°
2026-05-01 13:57 37.16732 -14.81392 35063 ft 381 kts 226°
2026-05-01 13:58 37.12779 -14.85798 35058 ft 380 kts 226°
2026-05-01 13:58 37.08816 -14.90204 35062 ft 380 kts 226°
2026-05-01 13:59 37.05028 -14.94783 35061 ft 377 kts 232°
2026-05-01 13:59 37.01913 -14.99982 35057 ft 374 kts 240°
2026-05-01 14:00 36.99528 -15.05718 35055 ft 372 kts 248°
2026-05-01 14:00 36.97926 -15.11839 35057 ft 372 kts 255°
2026-05-01 14:01 36.96766 -15.18148 35050 ft 373 kts 256°
2026-05-01 14:01 36.95620 -15.24480 35063 ft 373 kts 256°
2026-05-01 14:02 36.94486 -15.30758 35056 ft 373 kts 256°
2026-05-01 14:02 36.93352 -15.37045 35047 ft 373 kts 256°
2026-05-01 14:03 36.92210 -15.43371 35049 ft 373 kts 256°
2026-05-01 14:03 36.91072 -15.49653 35055 ft 372 kts 256°
2026-05-01 14:04 36.89925 -15.55972 35049 ft 373 kts 257°
2026-05-01 14:04 36.88969 -15.61208 35045 ft 372 kts 257°
2026-05-01 14:05 36.87633 -15.68528 35046 ft 373 kts 256°
2026-05-01 14:05 36.86482 -15.74807 35055 ft 372 kts 256°
2026-05-01 14:06 36.85321 -15.81114 35063 ft 372 kts 256°
2026-05-01 14:06 36.84163 -15.87384 35065 ft 372 kts 256°
2026-05-01 14:07 36.83009 -15.93641 35058 ft 372 kts 256°
2026-05-01 14:08 36.81261 -16.03038 35058 ft 371 kts 256°
2026-05-01 14:08 36.80092 -16.09315 35050 ft 371 kts 256°
2026-05-01 14:09 36.78925 -16.15553 35048 ft 371 kts 256°
2026-05-01 14:09 36.77752 -16.21801 35053 ft 372 kts 256°
2026-05-01 14:10 36.76571 -16.28066 35047 ft 371 kts 256°
2026-05-01 14:10 36.75391 -16.34324 35049 ft 371 kts 256°
2026-05-01 14:11 36.74206 -16.40575 35048 ft 371 kts 256°
2026-05-01 14:11 36.72420 -16.49966 35040 ft 371 kts 256°
2026-05-01 14:12 36.71233 -16.56190 35037 ft 371 kts 256°
2026-05-01 14:12 36.70042 -16.62411 35044 ft 370 kts 256°
2026-05-01 14:13 36.69049 -16.67578 35047 ft 370 kts 256°
2026-05-01 14:13 36.67650 -16.74854 35038 ft 370 kts 256°
2026-05-01 14:14 36.66445 -16.81086 35039 ft 370 kts 256°
2026-05-01 14:14 36.65243 -16.87289 35033 ft 370 kts 256°
2026-05-01 14:15 36.64039 -16.93494 35039 ft 370 kts 256°
2026-05-01 14:15 36.62826 -16.99710 35035 ft 370 kts 256°
2026-05-01 14:16 36.61616 -17.05897 35035 ft 369 kts 256°
2026-05-01 14:16 36.60405 -17.12091 35033 ft 369 kts 256°
2026-05-01 14:17 36.59188 -17.18281 35026 ft 370 kts 256°
2026-05-01 14:17 36.57961 -17.24485 35036 ft 370 kts 256°
2026-05-01 14:18 36.56734 -17.30698 35034 ft 370 kts 256°
2026-05-01 14:18 36.55705 -17.35888 35034 ft 370 kts 256°
2026-05-01 14:19 36.54271 -17.43095 35040 ft 370 kts 256°
2026-05-01 14:19 36.53035 -17.49293 35037 ft 371 kts 256°
2026-05-01 14:20 36.51168 -17.58611 35033 ft 371 kts 256°
2026-05-01 14:21 36.49920 -17.64825 35027 ft 372 kts 256°
2026-05-01 14:21 36.48669 -17.71022 35035 ft 370 kts 255°
2026-05-01 14:22 36.46799 -17.80272 35044 ft 370 kts 255°
2026-05-01 14:22 36.45538 -17.86477 35041 ft 370 kts 256°
2026-05-01 14:23 36.44274 -17.92689 35036 ft 372 kts 255°
2026-05-01 14:23 36.43015 -17.98857 35037 ft 371 kts 255°
2026-05-01 14:24 36.41751 -18.05036 35038 ft 371 kts 255°
2026-05-01 14:24 36.40478 -18.11230 35031 ft 371 kts 256°
2026-05-01 14:25 36.39199 -18.17442 35038 ft 372 kts 255°
2026-05-01 14:25 36.37915 -18.23655 35031 ft 373 kts 255°
2026-05-01 14:26 36.35991 -18.32934 35030 ft 372 kts 256°
2026-05-01 14:27 36.34707 -18.39123 35035 ft 371 kts 255°
2026-05-01 14:27 36.33411 -18.45316 35047 ft 371 kts 256°
2026-05-01 14:28 36.31475 -18.54576 35034 ft 371 kts 256°
2026-05-01 14:28 36.30181 -18.60740 35033 ft 371 kts 256°
2026-05-01 14:29 36.28876 -18.66936 35030 ft 372 kts 255°
2026-05-01 14:30 36.26258 -18.79322 35030 ft 373 kts 255°
2026-05-01 14:31 36.24282 -18.88617 35028 ft 372 kts 255°
2026-05-01 14:31 36.22971 -18.94774 35029 ft 372 kts 255°
2026-05-01 14:32 36.21650 -19.00940 35028 ft 373 kts 255°
2026-05-01 14:32 36.20322 -19.07147 35038 ft 374 kts 255°
2026-05-01 14:33 36.18984 -19.13361 35029 ft 374 kts 255°
2026-05-01 14:33 36.17650 -19.19548 35030 ft 373 kts 255°
2026-05-01 14:34 36.16311 -19.25744 35051 ft 374 kts 255°
2026-05-01 14:34 36.14964 -19.31965 35037 ft 374 kts 255°
2026-05-01 14:35 36.13624 -19.38130 35051 ft 374 kts 255°
2026-05-01 14:35 36.12267 -19.44351 35056 ft 376 kts 255°
2026-05-01 14:36 36.10912 -19.50559 35041 ft 375 kts 255°
2026-05-01 14:36 36.09547 -19.56789 35042 ft 375 kts 255°
2026-05-01 14:37 36.08185 -19.62991 35057 ft 376 kts 255°
2026-05-01 14:37 36.07496 -19.66126 34928 ft 373 kts 254°
2026-05-01 14:37 36.06824 -19.69181 34587 ft 370 kts 255°
2026-05-01 14:37 36.06141 -19.72273 34166 ft 375 kts 255°
2026-05-01 14:38 36.05460 -19.75363 34045 ft 377 kts 254°
2026-05-01 14:38 36.04076 -19.81628 34041 ft 380 kts 254°
2026-05-01 14:39 36.02670 -19.87952 34026 ft 379 kts 255°
2026-05-01 14:39 36.01756 -19.94338 34035 ft 382 kts 263°
2026-05-01 14:40 36.01768 -20.00935 34051 ft 386 kts 272°
2026-05-01 14:40 36.02742 -20.07510 34046 ft 391 kts 281°
2026-05-01 14:41 36.04595 -20.13853 34032 ft 397 kts 286°
2026-05-01 14:41 36.06656 -20.20138 34049 ft 397 kts 286°
2026-05-01 14:42 36.08740 -20.26457 34032 ft 398 kts 286°
2026-05-01 14:42 36.10822 -20.32775 34044 ft 398 kts 286°
2026-05-01 14:43 36.12893 -20.39079 34035 ft 398 kts 287°
2026-05-01 14:43 36.14976 -20.45414 34035 ft 399 kts 287°
2026-05-01 14:44 36.17049 -20.51734 34050 ft 399 kts 287°
2026-05-01 14:44 36.20155 -20.61254 34042 ft 399 kts 287°
2026-05-01 14:45 36.23204 -20.70604 34036 ft 397 kts 287°
2026-05-01 14:46 36.25268 -20.76958 34035 ft 398 kts 287°
2026-05-01 14:46 36.28368 -20.86505 34039 ft 399 kts 286°
2026-05-01 14:47 36.30419 -20.92870 34037 ft 398 kts 287°
2026-05-01 14:48 36.33501 -21.02426 34036 ft 399 kts 287°
2026-05-01 14:48 36.36578 -21.12011 34045 ft 400 kts 287°
2026-05-01 14:49 36.40678 -21.24826 34043 ft 403 kts 288°
2026-05-01 14:50 36.44800 -21.37750 34036 ft 404 kts 287°
2026-05-01 14:51 36.47892 -21.47488 34038 ft 404 kts 287°
2026-05-01 14:52 36.50965 -21.57209 34046 ft 406 kts 288°
2026-05-01 14:53 36.54043 -21.66980 34040 ft 405 kts 287°
2026-05-01 14:53 36.56101 -21.73518 34050 ft 406 kts 288°
2026-05-01 14:54 36.58153 -21.80069 34041 ft 408 kts 288°
2026-05-01 14:54 36.60209 -21.86625 34037 ft 409 kts 287°
2026-05-01 14:55 36.62252 -21.93170 34035 ft 408 kts 288°
2026-05-01 14:55 36.64299 -21.99744 34045 ft 408 kts 288°
2026-05-01 14:56 36.66352 -22.06356 34040 ft 410 kts 288°
2026-05-01 14:56 36.68389 -22.12923 34036 ft 410 kts 288°
2026-05-01 14:57 36.70443 -22.19557 34037 ft 412 kts 288°
2026-05-01 14:57 36.73529 -22.29567 34038 ft 413 kts 288°
2026-05-01 14:58 36.75573 -22.36216 34038 ft 413 kts 288°
2026-05-01 14:58 36.77629 -22.42914 34038 ft 413 kts 288°
2026-05-01 14:59 36.79667 -22.49567 34041 ft 414 kts 288°
2026-05-01 14:59 36.81712 -22.56268 34038 ft 414 kts 288°
2026-05-01 15:00 36.84771 -22.66308 34040 ft 414 kts 288°
2026-05-01 15:01 36.86805 -22.73018 34038 ft 414 kts 288°
2026-05-01 15:01 36.88845 -22.79742 34029 ft 416 kts 288°
2026-05-01 15:02 36.90883 -22.86499 34036 ft 417 kts 288°
2026-05-01 15:02 36.92923 -22.93259 34039 ft 417 kts 288°
2026-05-01 15:03 36.94961 -23.00044 34043 ft 418 kts 288°
2026-05-01 15:03 36.97010 -23.06868 34042 ft 419 kts 288°
2026-05-01 15:04 36.99040 -23.13652 34039 ft 418 kts 288°
2026-05-01 15:04 37.01080 -23.20489 34040 ft 419 kts 288°
2026-05-01 15:05 37.03128 -23.27369 34020 ft 419 kts 288°
2026-05-01 15:05 37.05146 -23.34164 34036 ft 419 kts 288°
2026-05-01 15:06 37.07161 -23.40994 34043 ft 418 kts 288°
2026-05-01 15:06 37.09175 -23.47842 33929 ft 417 kts 288°
2026-05-01 15:06 37.10160 -23.51178 33645 ft 410 kts 288°
2026-05-01 15:07 37.11152 -23.54543 33369 ft 409 kts 288°
2026-05-01 15:07 37.12135 -23.57889 33089 ft 409 kts 288°
2026-05-01 15:07 37.13102 -23.61179 32818 ft 409 kts 288°
2026-05-01 15:07 37.14096 -23.64563 32533 ft 410 kts 288°
2026-05-01 15:08 37.15084 -23.67933 32254 ft 410 kts 287°
2026-05-01 15:08 37.16064 -23.71279 31985 ft 410 kts 288°
2026-05-01 15:08 37.17037 -23.74607 31639 ft 412 kts 288°
2026-05-01 15:08 37.18018 -23.77960 31122 ft 413 kts 288°
2026-05-01 15:09 37.19006 -23.81344 30478 ft 414 kts 288°
2026-05-01 15:09 37.19998 -23.84750 29791 ft 414 kts 288°
2026-05-01 15:09 37.20974 -23.88105 29099 ft 415 kts 288°
2026-05-01 15:09 37.21957 -23.91499 28266 ft 418 kts 288°
2026-05-01 15:10 37.22954 -23.94937 27395 ft 422 kts 289°
2026-05-01 15:10 37.24972 -24.01909 25650 ft 429 kts 290°
2026-05-01 15:10 37.25979 -24.05385 24880 ft 429 kts 290°
2026-05-01 15:11 37.26996 -24.08902 24123 ft 429 kts 290°
2026-05-01 15:11 37.29021 -24.15914 22682 ft 426 kts 290°
2026-05-01 15:11 37.30021 -24.19380 22038 ft 423 kts 290°
2026-05-01 15:12 37.31012 -24.22821 21423 ft 420 kts 290°
2026-05-01 15:12 37.32967 -24.29626 20298 ft 411 kts 290°
2026-05-01 15:12 37.33923 -24.32971 19720 ft 407 kts 291°
2026-05-01 15:13 37.36752 -24.42869 17947 ft 400 kts 291°
2026-05-01 15:14 37.38613 -24.49401 16727 ft 396 kts 290°
2026-05-01 15:14 37.39539 -24.52657 16162 ft 393 kts 291°
2026-05-01 15:14 37.41347 -24.59031 15043 ft 388 kts 291°
2026-05-01 15:15 37.43138 -24.65364 13897 ft 384 kts 290°
2026-05-01 15:15 37.44909 -24.71626 12798 ft 378 kts 290°
2026-05-01 15:16 37.46654 -24.77816 11675 ft 375 kts 290°
2026-05-01 15:16 37.48353 -24.83868 11008 ft 356 kts 290°
2026-05-01 15:17 37.49942 -24.89535 10639 ft 331 kts 290°
2026-05-01 15:18 37.52120 -24.97333 10169 ft 296 kts 290°
2026-05-01 15:18 37.52782 -24.99706 10015 ft 286 kts 290°
2026-05-01 15:19 37.54739 -25.06723 8915 ft 281 kts 290°
2026-05-01 15:19 37.56025 -25.11338 8207 ft 277 kts 290°
2026-05-01 15:19 37.56656 -25.13612 7858 ft 275 kts 290°
2026-05-01 15:20 37.57907 -25.18124 7167 ft 271 kts 290°
2026-05-01 15:20 37.58522 -25.20342 6831 ft 269 kts 290°
2026-05-01 15:20 37.59169 -25.22551 6496 ft 267 kts 293°
2026-05-01 15:21 37.59854 -25.24695 6175 ft 264 kts 293°
2026-05-01 15:21 37.60548 -25.26848 5843 ft 262 kts 293°
2026-05-01 15:21 37.61228 -25.28957 5546 ft 259 kts 293°
2026-05-01 15:21 37.61884 -25.31002 5472 ft 245 kts 293°
2026-05-01 15:22 37.63182 -25.34873 5079 ft 235 kts 295°
2026-05-01 15:22 37.63815 -25.36747 4856 ft 229 kts 294°
2026-05-01 15:22 37.64416 -25.38588 4650 ft 223 kts 294°
2026-05-01 15:23 37.64983 -25.40370 4461 ft 215 kts 293°
2026-05-01 15:23 37.65520 -25.42089 4328 ft 202 kts 293°
2026-05-01 15:23 37.66027 -25.43714 4080 ft 197 kts 293°
2026-05-01 15:23 37.66527 -25.45320 3883 ft 196 kts 293°
2026-05-01 15:24 37.67030 -25.46930 3714 ft 196 kts 293°
2026-05-01 15:24 37.67527 -25.48525 3462 ft 195 kts 293°
2026-05-01 15:24 37.68021 -25.50107 3214 ft 194 kts 294°
2026-05-01 15:24 37.68514 -25.51684 2938 ft 193 kts 294°
2026-05-01 15:25 37.69009 -25.53263 2682 ft 193 kts 294°
2026-05-01 15:25 37.69501 -25.54833 2432 ft 193 kts 295°
2026-05-01 15:25 37.69999 -25.56421 2177 ft 192 kts 294°
2026-05-01 15:25 37.70480 -25.57956 1926 ft 187 kts 294°
2026-05-01 15:26 37.70950 -25.59458 1675 ft 180 kts 294°
2026-05-01 15:26 37.71400 -25.60893 1436 ft 170 kts 294°
2026-05-01 15:26 37.71817 -25.62225 1241 ft 154 kts 295°
2026-05-01 15:26 37.72188 -25.63408 1022 ft 140 kts 295°
2026-05-01 15:27 37.72551 -25.64555 850 ft 139 kts 296°
2026-05-01 15:27 37.72909 -25.65684 671 ft 139 kts 295°
2026-05-01 15:27 37.73261 -25.66813 480 ft 138 kts 296°
2026-05-01 15:28 37.73967 -25.69045 176 ft 133 kts 296°
2026-05-01 15:28 37.74265 -25.69983 228 ft 91 kts 291°
2026-05-01 15:28 37.74436 -25.70528 251 ft 46 kts 292°
2026-05-01 15:29 37.74573 -25.70957 254 ft 16 kts 292°
2026-05-01 15:29 37.74654 -25.71026 257 ft 12 kts
2026-05-01 15:29 37.74742 -25.71022 268 ft 4 kts 360°
2026-05-01 15:30 37.74799 -25.71017 275 ft 6 kts 18°